This demonstration page uses our WeatherBlox Daily Observations layout. Learn more.

Left ArrowRight Arrow

39.01783, -85.05884

Hourly Observations for February 25, 2017

Temp ( °F °C ) Dew Point ( °F °C ) Humidity (%) Winds ( mph kmh ) Pressure ( in mb ) Visibility ( mi km ) Precip ( " mm )
12:52 am 00:52 Mostly Cloudy 50 10 42 5.6 74 74 NW 13 20 29.62 1003 10 16 0.00 0.00
1:52 am 01:52 Mostly Cloudy 49 9.4 42 5.6 77 77 WNW 6 9 29.64 1004 10 16 0.00 0.00
2:25 am 02:25 Cloudy 49 9.4 42 5.6 77 77 NW 12 19 29.65 1004 10 16 0.00 0.03
2:52 am 02:52 Cloudy 47 8.3 39 3.9 74 74 NW 13 20 29.63 1004 10 16 0.00 0.03
3:11 am 03:11 Cloudy 46 7.8 36 2.2 68 68 NW 16 26 29.65 1004 10 16 0.00 0.00
3:52 am 03:52 Mostly Cloudy 44 6.7 34 1.1 68 68 WNW 10 17 29.65 1004 10 16 0.00 0.00
4:52 am 04:52 Partly Cloudy 42 5.6 32 0 68 68 W 8 13 29.66 1004 10 16 0.00 0.00
5:52 am 05:52 Cloudy 42 5.6 33 0.6 71 71 WSW 9 15 29.66 1005 10 16 0.00 0.00
6:52 am 06:52 Cloudy 42 5.6 33 0.6 71 71 W 14 22 29.68 1005 10 16 0.00 0.00
7:52 am 07:52 Cloudy 37 2.8 26 -3.3 65 65 W 17 28 29.74 1007 10 16 0.00 0.00
8:52 am 08:52 Cloudy 36 2.2 25 -3.9 64 64 W 22 35 29.77 1008 10 16 0.00 0.00
9:52 am 09:52 Cloudy with Light Snow 34 1.1 25 -3.9 70 70 W 13 20 29.80 1009 10 16 0.00 0.03
10:52 am 10:52 Cloudy 34 1.1 25 -3.9 70 70 W 20 31 29.83 1010 9 14 0.00 0.03
11:52 am 11:52 Cloudy 34 1.1 25 -3.9 70 70 W 15 24 29.86 1011 10 16 0.00 0.03
12:52 pm 12:52 Cloudy 31 -0.6 22 -5.6 69 69 WSW 18 30 29.89 1012 10 16 0.00 0.03
1:52 pm 13:52 Cloudy 32 0 19 -7.2 59 59 W 20 31 29.91 1013 10 16 0.00 0.00
2:27 pm 14:27 Cloudy 33 0.6 19 -7.2 56 56 W 15 24 29.94 1014 10 16 0.00 0.00
2:52 pm 14:52 Cloudy 33 0.6 19 -7.2 56 56 W 23 37 29.92 1013 10 16 0.00 0.00
3:52 pm 15:52 Cloudy 33 0.6 18 -7.8 54 54 W 20 31 29.95 1014 10 16 0.00 0.00
4:52 pm 16:52 Cloudy 32 0 18 -7.8 56 56 W 18 30 29.98 1015 10 16 0.00 0.00
5:52 pm 17:52 Cloudy 32 0 19 -7.2 59 59 W 10 17 30.00 1016 10 16 0.00 0.00
6:52 pm 18:52 Cloudy 31 -0.6 18 -7.8 59 59 W 9 15 30.01 1016 10 16 0.00 0.00
7:52 pm 19:52 Mostly Cloudy 32 0 17 -8.3 54 54 W 18 30 30.03 1017 10 16 0.00 0.00
8:52 pm 20:52 Cloudy 30 -1.1 16 -8.9 56 56 W 8 13 30.06 1018 10 16 0.00 0.00
9:52 pm 21:52 Mostly Clear 29 -1.7 16 -8.9 58 58 SW 5 7 30.06 1018 10 16 0.00 0.00
10:52 pm 22:52 Mostly Clear 28 -2.2 17 -8.3 63 63 SW 6 9 30.07 1018 10 16 0.00 0.00
11:52 pm 23:52 Clear 28 -2.2 17 -8.3 63 63 WSW 6 9 30.08 1019 10 16 0.00 0.00

Powered by AerisWeather